Theta_e
286 286 285 285 285 285 285 285 285 285 284 284 284 284 284 284 284 284 284 284 284 284 284 284 284 283 283 283 283 283 282 282 282 282 282 282 282 282 282 282 282 282 282 282 282 281 281 281 281 280 280 280 279 279 279 278 278 278 278 279 280 280 281 282 282 282 283 283 282 283 283 283 283 283 283 283 284 284 284 284 284 284 284 284 284
286 286 285 285 285 285 285 285 285 285 285 285 285 285 285 285 285 285 284 284 284 284 284 283 283 283 283 282 282 282 282 281 281 281 281 281 281 281 281 281 281 281 281 281 281 280 280 279 279 279 279 278 278 278 278 278 277 277 278 278 279 279 280 280 281 281 282 282 282 282 282 282 283 283 283 283 283 283 283 284 284 284 284 284 284
286 286 286 285 285 285 285 285 285 285 285 286 285 286 286 285 285 285 285 284 284 284 283 283 283 282 282 282 281 281 281 281 280 280 280 280 280 280 280 280 280 280 280 279 279 279 278 278 278 278 277 277 277 277 277 277 277 277 277 277 278 278 278 279 279 280 281 281 281 281 282 282 282 282 282 282 282 283 283 283 283 283 284 284 284
286 286 286 286 286 286 286 286 286 286 286 286 286 286 286 286 285 285 285 284 284 283 283 282 282 282 281 281 280 280 280 280 280 279 279 279 279 279 279 279 278 278 278 278 277 277 277 276 277 276 276 276 276 276 276 276 276 276 277 277 277 277 277 278 278 279 279 280 280 281 281 281 281 282 282 282 282 282 283 283 283 283 283 284 284
286 286 286 286 286 286 286 286 286 286 286 286 286 286 286 286 285 285 284 283 283 283 282 282 281 281 280 280 280 279 279 279 279 279 278 278 278 278 277 277 277 277 276 276 276 276 275 275 275 275 275 275 275 275 275 275 275 276 276 276 277 277 277 277 278 278 279 279 279 280 280 281 281 281 282 282 282 283 283 283 283 283 283 283 284
286 286 286 286 286 286 286 286 286 286 285 285 285 285 285 285 285 284 283 283 282 282 282 281 281 281 280 280 280 279 279 279 278 278 278 278 277 277 277 276 276 276 275 275 275 275 274 274 274 274 274 274 274 274 274 274 275 275 275 276 276 276 277 277 277 278 278 278 279 279 279 280 280 281 281 282 282 282 283 283 283 283 283 283 284
286 286 286 286 286 286 286 286 286 285 285 285 285 285 285 284 284 283 282 282 282 282 282 281 281 281 280 280 279 279 279 278 278 278 277 277 277 276 276 275 275 275 275 275 275 274 274 274 273 273 273 273 274 274 274 274 275 275 275 276 276 276 277 277 277 278 278 278 278 278 278 279 279 280 280 281 281 282 282 283 283 283 283 284 284
286 286 286 286 286 286 286 285 285 285 285 285 284 284 284 284 283 282 282 281 282 282 282 282 281 281 280 279 279 278 278 278 277 277 277 277 276 276 275 275 275 275 275 274 274 274 274 273 273 273 273 273 273 274 274 274 274 275 275 275 276 276 276 276 277 277 277 277 278 278 278 278 279 279 280 280 281 281 282 282 283 283 283 283 284
286 286 286 286 286 286 285 285 285 284 284 284 284 284 283 283 282 282 281 282 282 282 282 282 281 280 280 279 279 278 278 277 277 277 276 276 275 275 274 274 274 274 274 274 274 273 273 273 272 272 272 273 273 273 273 273 273 274 274 274 274 274 274 275 275 275 276 276 277 278 278 279 279 279 280 280 280 281 281 282 282 282 283 283 283
286 286 286 286 286 286 285 285 284 284 284 284 284 283 283 282 282 282 282 282 282 282 282 281 281 280 280 279 279 278 278 277 277 276 275 275 274 274 274 273 273 273 273 273 273 273 273 272 272 271 271 272 272 271 271 272 272 273 273 273 273 273 273 273 274 274 274 275 276 276 277 277 278 278 278 279 280 280 281 281 282 282 283 283 283
286 286 286 286 286 286 285 285 284 284 284 284 283 283 282 282 281 281 281 281 281 281 281 281 281 280 279 279 278 278 277 277 276 275 275 274 274 273 273 273 272 272 272 272 272 272 272 271 271 271 270 270 270 270 270 271 271 272 272 272 272 273 273 273 273 274 274 274 275 275 275 275 276 276 276 277 277 277 278 279 280 280 281 282 283
287 286 286 286 286 286 285 285 284 284 284 283 283 282 282 281 281 281 281 281 281 281 281 281 280 280 279 279 278 277 277 276 276 275 274 274 274 273 272 273 272 272 272 272 271 271 271 270 270 270 270 270 269 269 270 270 270 270 270 271 271 272 272 273 273 273 274 274 274 274 275 275 275 275 275 275 275 276 276 277 277 277 278 279 280
287 286 286 286 286 286 285 285 284 284 283 283 282 282 281 281 280 280 280 281 281 281 280 280 280 279 279 278 278 277 276 276 275 274 274 274 273 272 272 273 272 272 272 271 270 270 270 270 270 269 269 269 269 269 269 269 269 269 270 270 270 271 271 272 272 273 273 273 273 273 273 274 274 274 274 275 275 275 275 276 276 276 277 277 278
287 287 286 286 286 286 285 285 284 284 283 282 282 281 281 280 280 280 280 281 280 280 280 280 279 279 278 278 277 276 276 275 275 274 273 273 273 272 272 272 271 271 270 270 269 269 269 269 269 269 269 269 268 268 269 269 269 269 270 270 270 271 271 271 272 272 272 273 273 273 273 273 273 274 274 274 275 275 276 276 277 277 277 277 278
287 287 286 286 286 285 285 284 284 283 282 282 281 281 281 280 280 280 280 280 280 280 279 279 279 278 278 277 276 276 275 275 274 273 273 273 272 271 271 271 270 270 269 269 269 269 269 269 269 269 269 269 269 269 269 270 270 270 271 271 271 271 271 272 272 272 272 272 273 273 273 273 273 274 274 275 275 276 276 277 277 277 278 278 278
287 287 286 286 285 285 285 284 283 283 282 281 281 281 280 279 279 280 280 280 279 279 279 279 278 277 277 276 276 275 275 274 273 273 273 272 271 270 270 269 269 269 269 268 268 268 269 269 269 269 269 269 269 270 270 271 271 271 272 272 272 272 272 273 273 273 273 274 274 274 274 275 275 275 276 276 276 277 277 277 277 277 277 278 278
287 286 286 286 285 285 284 284 283 282 281 281 281 280 280 279 280 280 280 279 279 279 278 278 277 277 276 275 275 275 274 273 273 272 272 272 271 269 269 269 269 269 269 269 269 269 269 269 269 269 269 269 270 271 271 272 273 273 273 273 273 274 274 274 274 274 274 274 275 275 275 276 276 276 276 276 276 276 276 276 276 276 276 276 277
286 286 286 286 285 284 284 283 282 281 281 281 281 280 279 279 279 279 279 279 278 278 277 277 277 276 275 275 274 274 274 273 272 272 272 272 271 269 268 269 269 269 269 269 269 269 269 269 269 270 270 270 271 272 273 273 274 274 274 274 274 274 274 274 274 274 274 275 275 275 275 275 276 276 276 276 276 276 276 276 276 276 276 276 276
286 286 286 285 285 284 283 282 281 281 281 281 280 279 279 279 279 278 278 277 277 277 277 276 276 275 275 274 274 273 273 273 272 272 272 272 270 269 269 269 269 269 269 269 269 269 269 270 270 271 271 271 272 273 273 274 274 274 275 275 275 275 275 275 275 275 275 275 275 275 275 275 275 275 275 276 276 276 276 276 276 276 276 276 276
287 286 285 284 284 283 281 281 281 281 280 280 279 279 279 278 278 277 277 276 276 276 276 275 275 275 274 274 273 273 273 272 272 271 272 271 269 269 269 269 269 269 269 269 270 270 271 271 271 271 272 272 273 273 274 274 275 275 275 275 275 275 275 275 275 275 275 275 275 275 275 275 275 275 275 275 275 275 275 275 275 275 275 276 275
286 285 285 283 282 282 281 280 281 280 280 279 278 278 278 277 277 276 276 275 275 275 275 274 274 274 274 273 273 272 272 272 271 271 271 270 268 269 270 269 269 270 270 271 271 271 271 272 271 271 272 272 273 274 274 275 275 275 275 275 275 276 276 276 276 276 276 276 276 276 275 275 275 275 275 275 275 275 275 275 275 275 275 275 275
286 285 284 282 281 281 280 280 280 279 279 278 278 277 276 276 275 275 275 275 274 274 274 274 274 274 273 272 272 272 271 271 270 271 271 269 268 269 270 270 271 271 272 272 272 272 272 272 272 272 272 273 274 274 275 275 275 275 275 276 276 276 276 276 276 276 276 275 275 275 274 274 274 274 274 274 274 274 274 274 274 275 275 275 275
285 283 282 281 281 280 280 279 279 278 278 277 276 276 275 275 275 274 274 274 274 273 273 273 273 273 273 272 271 271 271 270 270 270 270 268 268 270 270 271 272 272 272 272 272 272 272 272 272 272 273 274 274 275 275 275 275 275 275 275 275 276 276 276 275 275 274 274 273 273 273 273 273 273 273 273 273 273 273 273 273 273 274 274 274
283 282 281 280 280 279 279 278 278 277 277 276 275 275 275 274 274 274 273 273 273 273 273 272 272 272 272 272 271 271 270 269 269 268 268 268 269 270 270 271 272 272 272 272 272 272 272 272 273 273 274 275 275 275 275 274 274 274 274 274 275 275 274 274 273 272 272 272 272 272 272 272 272 272 272 272 272 272 272 272 272 273 273 273 273
282 281 280 280 279 279 278 277 277 276 276 275 275 274 274 274 273 273 273 273 272 272 272 271 271 271 271 271 271 270 268 267 267 267 267 268 269 270 270 271 272 272 272 272 272 272 273 273 274 274 274 274 273 273 272 272 272 272 273 273 273 272 272 271 271 271 271 271 271 271 271 271 271 271 271 272 272 272 272 272 272 273 273 273 273
282 281 280 279 278 278 277 277 276 276 275 275 274 274 274 273 273 273 272 272 271 271 271 270 270 270 269 270 269 267 266 266 267 267 268 268 269 270 270 271 271 272 272 272 272 272 273 273 273 273 272 272 271 270 270 270 269 269 270 270 269 269 269 269 269 270 270 270 270 271 271 271 271 271 272 272 272 272 272 272 273 273 273 273 273
281 280 279 279 278 277 277 276 276 275 275 274 274 273 273 273 272 272 272 271 270 270 270 270 269 268 268 267 266 265 266 266 267 268 268 269 270 271 271 271 271 272 272 272 272 272 272 272 271 270 270 269 268 268 267 267 266 267 267 267 267 267 268 268 269 269 269 270 270 270 270 271 271 271 272 272 272 272 273 273 273 273 273 274 274
280 279 279 278 277 277 276 275 275 275 274 274 273 273 272 272 272 271 271 270 270 270 269 268 268 267 266 266 266 266 267 267 268 269 270 270 271 271 271 271 272 272 272 272 272 271 270 269 268 268 267 266 265 265 265 264 265 265 266 266 266 267 267 267 267 268 268 269 269 270 270 271 271 271 272 272 273 273 273 273 274 274 274 274 274
279 278 278 277 276 276 275 275 274 274 273 273 272 272 271 271 271 271 270 270 270 269 268 267 267 267 267 266 267 267 268 268 269 270 270 271 271 271 271 272 272 272 271 271 270 269 267 266 266 265 264 263 263 263 263 264 264 264 265 265 265 265 265 265 266 267 267 268 269 269 270 270 271 271 272 272 273 273 274 274 274 274 274 274 274
277 277 276 276 275 275 275 274 273 273 272 272 271 271 271 270 270 270 270 269 269 268 267 267 267 268 268 268 268 268 268 269 270 270 270 270 271 271 272 272 271 270 270 269 268 266 265 264 263 262 262 262 262 263 263 263 263 263 264 264 264 264 264 265 265 266 266 267 267 268 269 270 271 272 272 273 274 274 274 275 275 275 275 275 275
277 276 276 275 275 275 274 273 272 271 271 270 270 270 270 269 269 269 268 267 267 266 266 267 267 268 268 269 269 268 269 269 269 269 270 270 271 271 271 270 269 269 268 267 265 264 263 262 261 261 261 261 262 262 263 263 263 263 263 263 263 264 264 265 265 265 266 266 267 268 269 270 271 272 272 273 274 274 275 275 275 275 275 275 275
276 276 275 275 274 274 273 272 271 270 270 269 269 268 268 268 269 269 268 267 267 266 267 267 267 267 267 268 268 268 268 268 268 269 269 270 270 270 269 269 268 267 266 265 264 263 262 261 261 261 261 261 261 262 262 262 262 262 262 263 263 264 264 265 265 265 266 267 267 268 269 270 271 272 272 273 274 274 275 275 275 275 275 275 275
275 275 275 274 274 273 272 271 270 269 269 268 267 267 266 266 266 267 268 268 268 267 267 267 267 266 266 266 267 267 267 267 268 268 269 270 269 269 268 267 266 265 265 264 263 262 261 261 260 261 261 261 261 261 261 262 262 262 262 263 263 264 264 265 265 266 266 267 268 268 269 269 270 271 272 273 273 274 275 275 275 275 275 275 275
274 274 273 273 272 271 271 270 269 268 268 267 266 266 266 265 265 264 265 266 267 268 268 267 266 265 265 265 266 266 266 267 267 268 269 269 268 267 267 266 266 265 265 263 262 261 261 261 260 261 261 261 261 261 261 261 262 262 262 263 263 264 265 265 266 266 267 267 268 268 268 269 270 270 271 272 273 273 274 275 275 276 276 276 276
272 272 272 271 271 270 269 268 268 267 266 266 265 265 265 265 264 264 263 262 262 264 267 268 267 265 264 264 264 264 265 266 267 268 268 267 266 266 266 266 266 266 265 263 262 261 261 260 260 260 260 260 261 261 261 261 262 262 263 263 264 264 265 265 266 266 267 267 267 268 268 269 269 270 270 271 271 272 274 274 275 276 276 276 277
272 271 270 270 269 268 267 267 266 266 265 265 264 264 264 264 263 263 262 261 260 261 264 267 268 267 265 263 263 264 264 265 266 267 267 265 265 265 265 265 265 265 264 263 262 261 260 260 260 260 260 260 261 261 261 262 262 262 263 263 264 265 265 266 266 267 267 267 267 267 268 268 269 269 269 270 271 271 273 274 275 276 276 277 277
271 270 269 268 268 267 266 266 265 265 264 264 264 263 263 263 263 262 261 261 261 261 262 264 265 266 266 265 264 264 264 264 265 266 265 264 264 264 264 263 263 262 262 263 262 261 260 260 260 260 260 261 261 261 261 262 262 263 263 264 265 265 265 266 267 267 267 267 267 267 267 268 268 268 269 269 270 271 272 273 274 275 276 277 277
268 268 267 267 266 265 265 264 264 264 264 263 263 263 262 262 262 261 260 260 260 261 261 262 262 263 265 265 264 263 264 264 264 264 265 264 264 264 264 263 262 262 262 263 262 261 260 260 260 260 260 261 261 261 261 262 262 263 263 264 265 265 266 266 266 267 267 267 267 267 267 267 268 268 268 269 270 270 271 272 273 274 275 276 277
266 266 265 265 264 264 264 263 263 263 263 263 262 262 262 261 261 261 260 260 260 260 261 261 261 262 263 264 263 263 263 263 263 263 264 264 264 264 264 263 263 262 262 262 262 261 261 261 261 261 261 261 261 261 261 262 262 263 263 264 265 265 266 266 266 267 267 267 267 267 267 267 267 268 268 268 269 270 271 271 272 273 274 275 276
266 265 264 264 263 263 262 262 262 262 262 262 262 261 261 260 261 261 260 259 259 260 260 260 261 263 263 262 262 262 263 263 263 263 263 263 264 264 264 263 262 262 262 262 261 261 261 261 261 261 261 262 262 261 261 262 262 262 263 264 264 265 265 266 266 267 267 267 267 267 267 267 267 267 268 268 269 270 270 271 271 272 273 274 275
264 264 263 263 262 262 261 261 261 261 261 261 261 260 260 260 260 260 259 259 259 259 259 260 261 263 263 262 261 262 263 263 263 263 263 263 263 263 263 262 262 262 262 262 261 261 261 261 261 261 262 262 262 262 262 262 262 262 263 263 264 265 265 266 266 266 267 267 267 267 267 267 267 267 268 268 269 269 269 270 271 271 272 273 274
263 262 262 262 262 261 261 261 261 261 260 260 260 260 260 260 260 259 259 259 259 259 259 260 262 263 262 261 261 262 262 262 262 262 262 263 263 263 263 262 262 262 262 262 261 261 261 261 261 262 262 263 263 263 263 263 263 262 262 263 264 265 265 265 266 266 267 267 267 267 267 267 267 267 267 268 268 268 269 269 270 271 272 273 274
262 261 261 261 261 261 260 260 260 260 260 260 260 260 260 259 259 259 259 259 259 258 258 260 261 262 262 262 261 261 262 262 262 262 263 263 263 263 263 262 262 262 262 262 262 261 261 261 262 262 263 263 263 262 263 263 263 262 262 263 264 264 265 265 265 266 266 267 267 267 267 267 267 267 267 267 268 268 268 269 270 271 271 272 273
261 261 260 260 260 260 260 260 260 260 260 259 259 259 259 259 259 259 258 258 259 258 259 259 260 261 262 262 262 262 262 262 262 263 263 263 263 263 263 262 262 263 263 262 262 262 262 262 262 263 263 263 263 263 263 263 263 262 262 262 263 264 264 265 265 265 266 267 267 267 266 266 266 266 266 267 268 268 268 269 269 270 271 271 272
260 260 260 260 260 260 260 260 259 259 259 259 259 259 259 259 259 259 258 258 259 259 259 259 260 260 261 262 262 262 262 262 262 262 263 263 263 263 263 263 263 263 263 263 262 262 262 262 262 263 263 263 263 263 263 263 263 263 263 263 262 263 264 264 265 265 266 267 267 266 266 266 266 266 266 267 267 267 268 268 269 269 270 271 272
260 260 259 260 260 260 260 259 259 259 258 258 258 258 259 258 258 258 258 258 258 259 259 259 260 260 261 261 262 262 262 262 262 262 262 263 263 263 263 262 263 263 263 263 262 262 262 262 262 262 263 263 263 263 263 263 263 263 263 263 263 263 263 264 264 265 266 267 267 266 266 266 266 266 266 266 267 267 267 268 268 269 270 270 271
259 259 259 259 259 259 259 259 258 258 258 258 258 258 258 259 258 258 258 258 258 259 259 259 260 260 261 261 262 262 262 262 262 262 262 262 262 262 262 262 262 263 263 263 263 262 262 262 262 262 262 262 263 263 263 263 263 263 263 264 264 263 263 264 264 265 266 267 266 266 266 266 266 266 266 266 266 266 267 267 268 268 269 270 270
259 259 259 259 259 258 258 258 258 257 257 258 258 258 258 258 258 258 258 258 259 259 259 259 260 260 261 261 261 262 262 262 262 262 262 262 262 262 262 262 262 262 262 262 262 262 262 262 262 262 262 262 262 262 263 263 263 263 263 263 264 264 263 264 264 265 266 267 266 266 266 267 267 266 266 266 266 266 266 267 267 268 268 269 269
259 259 259 258 258 258 258 258 257 257 257 257 257 257 258 257 258 258 258 258 259 259 259 260 260 260 261 261 261 261 261 261 261 261 261 262 262 262 261 261 261 261 262 262 262 262 262 262 262 262 262 262 262 262 262 263 263 263 263 263 263 264 264 264 264 265 266 267 266 266 267 267 267 267 266 266 267 267 267 267 267 267 268 268 268
259 258 258 258 258 258 257 257 257 257 257 257 257 257 258 258 258 258 258 258 259 259 260 260 260 260 260 261 261 261 261 261 261 261 261 261 262 261 261 261 261 261 261 261 261 261 261 261 262 262 261 261 261 262 262 262 262 262 263 263 263 263 264 264 264 265 266 266 266 266 267 267 267 267 267 267 267 267 267 267 267 267 267 267 267
259 258 258 258 257 257 257 257 257 257 257 257 257 258 258 258 258 259 259 259 259 259 260 260 260 260 260 260 260 260 260 260 261 261 261 261 261 261 261 261 261 261 261 261 261 261 261 261 261 261 261 262 261 262 262 262 262 262 262 263 263 263 263 264 264 265 266 266 266 266 266 267 267 267 267 267 266 267 267 267 267 267 267 267 267
Wind_Speed
16 15 14 14 13 12 12 10 10 9 9 8 7 7 6 5 5 5 5 6 7 8 9 11 12 13 14 16 17 17 18 18 19 19 20 20 20 20 21 22 22 23 24 24 24 25 25 26 27 26 26 26 27 27 27 27 26 24 20 17 17 15 15 16 17 21 24 20 24 32 33 35 43 46 45 44 41 36 33 33 33 34 36 36 35
16 15 15 13 12 11 11 10 9 8 7 7 6 6 5 4 4 4 5 6 7 8 10 11 12 14 15 16 17 17 18 18 19 19 19 20 20 20 21 22 23 24 24 25 25 25 26 26 27 27 26 27 28 27 28 28 27 27 25 19 18 17 14 16 19 21 25 23 22 27 27 24 34 44 43 43 47 44 39 39 37 34 35 35 35
16 15 14 13 12 11 10 9 9 7 7 6 6 6 5 4 4 5 6 7 8 9 11 12 13 14 15 16 17 17 18 18 18 18 18 19 19 20 20 21 22 23 23 24 25 24 25 26 27 27 26 27 28 27 27 27 24 26 28 23 21 21 18 16 19 21 25 28 25 25 25 20 25 37 39 39 44 46 45 45 42 36 35 34 34
17 16 14 14 12 11 10 9 8 7 7 6 5 5 4 4 5 6 7 8 9 10 11 13 14 15 16 17 17 18 18 19 18 18 18 18 19 19 20 20 21 21 22 23 23 23 23 25 26 26 26 26 28 27 25 24 22 22 25 24 21 23 22 19 19 21 23 28 28 25 24 23 24 29 33 34 38 42 43 45 45 41 37 34 33
18 16 15 14 13 11 10 10 9 8 7 5 3 2 2 3 5 6 7 8 10 11 12 14 15 16 17 18 19 19 19 20 19 19 19 19 19 20 20 21 21 21 21 21 21 21 22 23 24 24 25 25 25 24 23 23 23 22 22 23 21 22 23 22 21 21 22 27 30 27 24 24 24 25 27 28 31 35 37 38 40 40 38 37 34
19 18 16 15 14 13 12 12 10 8 6 5 3 2 1 3 5 7 8 9 11 12 13 15 16 17 18 19 20 20 20 20 20 20 20 20 20 21 21 21 21 21 22 21 21 21 21 22 23 22 22 22 22 22 22 22 22 22 21 21 21 22 23 23 22 22 23 26 29 29 26 24 24 24 24 23 25 30 33 33 32 31 33 36 37
20 19 18 16 15 15 15 13 11 9 8 7 6 5 4 4 5 7 8 9 10 12 14 15 17 18 19 19 20 20 20 20 20 20 20 20 21 21 21 22 22 22 23 23 22 21 21 21 22 21 20 20 20 20 20 19 18 19 19 19 20 21 22 24 23 22 24 25 27 28 27 24 23 24 23 22 23 27 29 30 31 30 28 28 31
22 20 19 18 18 18 16 14 13 12 11 10 9 8 7 7 7 7 9 10 11 13 15 16 18 19 20 20 20 21 21 20 20 20 20 21 21 21 22 22 23 23 23 23 23 22 22 22 21 21 19 18 18 17 17 18 19 21 21 19 20 22 22 23 23 23 23 25 27 27 27 26 23 22 21 20 22 24 24 24 28 32 31 27 27
23 22 22 21 21 20 18 17 16 15 14 13 12 11 10 8 8 9 10 11 12 14 16 18 19 20 21 22 22 22 21 20 20 20 20 20 20 21 22 22 23 23 23 23 23 23 23 23 22 21 19 16 16 18 19 20 21 23 23 21 21 22 23 23 23 23 23 25 27 26 25 25 22 20 20 19 19 22 24 24 27 31 32 32 32
25 24 24 24 23 22 21 20 19 18 17 16 15 14 12 10 10 11 11 12 14 15 17 18 20 21 22 23 23 23 22 21 20 20 18 18 19 20 22 22 22 23 24 24 23 22 23 23 23 23 21 19 20 22 21 20 20 21 23 23 22 22 23 23 22 22 22 24 25 24 24 25 23 21 22 22 21 22 24 24 26 29 30 29 31
27 26 27 26 25 24 24 23 22 21 20 18 17 15 13 12 12 12 12 13 14 16 18 19 21 22 23 23 24 24 23 22 20 20 18 17 17 18 20 21 21 21 22 23 23 22 22 24 24 24 24 24 24 22 20 20 20 21 22 22 22 22 23 23 23 22 22 23 25 24 23 25 25 23 23 24 23 23 25 25 24 26 26 22 23
29 28 28 28 27 27 26 26 25 24 22 20 18 16 14 13 13 13 13 14 16 17 18 20 21 22 23 24 24 24 23 22 20 19 18 17 16 16 17 18 20 20 19 20 22 22 23 24 23 23 24 23 22 21 21 23 22 22 22 22 22 21 21 22 23 23 23 24 26 26 24 25 26 24 21 21 22 23 25 25 24 25 27 25 23
30 29 29 29 29 29 28 27 26 26 24 21 19 17 15 14 13 14 14 16 17 18 19 21 22 23 24 24 25 25 24 22 20 19 18 17 16 15 16 17 18 20 20 21 23 22 22 22 21 21 21 21 22 22 22 24 23 21 21 21 20 20 20 22 23 24 25 26 28 28 26 25 26 24 22 22 24 25 26 26 26 26 28 29 29
31 30 30 31 30 29 28 28 27 27 25 22 19 17 16 15 14 15 16 17 18 19 20 21 22 23 24 24 25 25 24 22 21 20 18 18 16 14 16 18 20 23 23 22 22 20 17 16 17 18 19 19 20 21 21 22 22 21 21 21 22 23 23 24 25 26 28 28 30 31 28 26 28 29 27 25 25 27 26 25 25 24 28 32 34
31 31 31 31 30 29 28 28 28 28 25 22 20 18 16 15 15 16 17 17 18 19 21 22 23 23 24 24 25 25 24 21 20 19 18 18 16 15 17 20 21 23 21 19 19 17 15 14 16 17 18 18 19 20 21 22 22 23 26 28 30 30 29 28 29 30 30 29 29 31 30 29 30 31 30 27 26 27 27 27 28 29 31 34 35
29 30 30 30 30 29 29 29 29 28 25 22 19 18 16 15 15 16 17 18 19 20 21 23 24 24 24 25 25 25 24 21 20 19 18 17 16 16 19 20 19 19 19 17 17 17 15 15 16 16 17 18 20 22 23 23 25 28 31 32 33 34 34 34 34 32 31 31 31 32 32 32 32 32 31 30 29 29 30 31 30 28 29 29 29
27 28 28 29 29 28 29 29 29 27 24 21 19 18 16 16 16 17 18 19 20 21 22 23 24 25 25 25 26 27 25 22 20 19 18 17 16 17 18 19 17 18 19 18 18 17 16 16 16 18 19 20 22 25 26 27 28 31 33 34 35 35 35 37 37 34 32 34 35 36 36 37 36 36 34 33 32 32 32 31 27 25 25 21 19
26 26 27 27 27 28 29 29 27 25 22 20 18 17 16 16 17 18 18 20 21 21 23 24 24 25 25 25 25 26 26 23 21 19 18 16 16 16 18 19 19 20 21 19 17 17 18 19 21 23 24 25 26 28 29 29 30 31 32 34 36 37 36 39 42 39 36 36 36 37 38 38 38 37 34 32 31 29 31 31 28 27 27 23 20
24 24 25 26 26 27 27 26 25 22 20 19 17 16 16 16 17 18 18 19 21 22 23 25 25 25 24 25 25 25 25 24 21 19 18 16 15 16 17 19 20 21 20 19 20 22 24 26 27 25 25 27 29 30 30 30 31 32 32 31 32 35 37 39 42 41 38 37 38 38 39 39 39 38 36 34 31 29 30 31 30 29 30 29 28
20 21 22 23 24 25 25 24 22 21 19 18 16 16 16 16 17 18 18 19 21 22 23 24 25 25 24 24 24 23 24 24 22 19 18 16 15 15 17 19 21 22 22 24 28 31 30 29 27 25 25 28 30 31 32 31 31 33 33 30 30 35 37 38 39 38 37 37 37 37 37 36 35 33 30 28 26 26 28 30 31 32 31 31 30
19 19 20 22 23 24 24 22 21 19 18 17 16 16 16 16 17 17 18 20 21 22 23 24 25 26 25 24 24 23 23 24 22 20 18 17 15 16 17 19 21 24 27 28 30 30 28 25 25 25 26 29 30 31 32 33 35 36 34 32 34 38 39 38 36 33 32 31 29 29 29 28 28 27 25 24 23 24 26 28 30 32 32 32 31
18 19 20 22 23 23 22 21 19 18 17 16 16 16 15 16 17 17 18 20 21 22 23 23 25 27 26 25 24 23 22 22 21 20 19 18 16 16 18 19 20 23 27 28 27 27 27 26 27 28 28 29 31 33 34 36 36 35 33 34 36 38 39 37 32 28 24 23 23 24 24 25 26 26 26 27 27 26 28 29 30 32 33 34 33
19 20 21 22 23 22 21 20 18 17 16 16 15 15 15 16 17 17 18 20 21 22 23 23 25 27 27 26 24 23 22 21 20 21 21 18 17 17 18 19 20 21 24 26 28 29 29 29 30 30 31 31 33 34 35 34 33 31 32 35 37 37 37 33 28 25 25 24 24 26 26 26 28 28 27 28 28 27 28 29 30 32 33 34 35
20 21 22 22 22 22 20 19 17 16 16 16 16 16 16 16 17 17 18 19 21 22 23 23 24 26 28 28 26 24 23 22 21 21 21 18 19 19 19 20 21 22 24 26 27 29 30 31 32 33 33 32 31 31 31 31 32 33 35 36 36 34 31 28 26 26 27 26 26 26 26 27 28 28 28 29 29 29 30 31 32 33 34 35 36
21 22 23 23 22 21 19 18 17 16 16 17 17 16 17 17 17 18 18 19 19 21 22 22 23 24 26 27 27 25 22 21 21 21 20 19 20 20 20 21 22 22 24 25 27 29 31 32 33 31 29 28 28 28 29 29 30 32 32 32 31 28 26 26 26 25 25 25 25 25 26 27 28 28 29 31 31 31 31 32 33 34 35 36 37
22 23 23 22 21 20 19 18 17 18 17 18 18 17 17 17 18 18 18 18 19 20 21 21 22 23 23 25 25 23 21 21 22 22 21 21 21 21 22 23 22 22 24 26 27 29 29 28 27 26 25 26 27 27 27 27 27 27 27 27 27 26 24 24 23 23 23 24 24 25 27 28 29 30 31 31 30 32 34 35 34 33 32 33 35
24 24 24 23 22 21 20 19 19 18 18 18 18 18 18 18 18 18 17 17 18 19 20 21 21 21 22 22 21 19 20 22 23 23 22 22 23 23 23 24 24 25 26 27 27 27 26 27 27 28 30 30 28 27 27 26 24 22 22 23 24 23 22 22 22 23 24 24 25 27 29 29 29 30 30 29 28 30 34 36 34 31 29 30 31
25 25 24 23 23 22 21 20 20 19 19 19 19 18 18 18 18 18 17 16 18 19 19 20 19 19 20 20 20 22 23 22 21 20 20 22 23 23 23 24 26 26 26 26 27 27 28 31 32 32 31 29 27 26 26 24 21 19 19 20 21 22 23 23 23 23 22 23 25 27 27 28 28 28 29 29 30 31 33 34 33 32 31 29 26
26 25 24 24 24 22 21 21 20 20 19 19 19 19 18 17 18 18 16 16 17 18 19 19 19 19 20 21 22 24 24 21 18 18 19 20 21 22 22 24 24 25 24 25 25 26 27 29 29 27 25 24 22 22 22 20 20 20 20 20 21 22 23 23 22 22 22 23 24 25 26 27 27 28 28 28 31 36 38 35 32 31 30 26 23
26 26 26 25 24 23 21 21 20 20 19 19 19 18 17 17 17 17 17 16 16 16 18 19 20 20 22 23 21 20 21 20 18 18 19 19 20 20 21 21 21 22 23 22 22 22 23 23 23 22 21 20 18 18 19 20 21 22 23 24 24 23 21 21 21 22 24 24 24 25 26 26 26 26 27 26 28 34 36 31 26 25 23 21 21
27 27 27 25 23 22 21 20 20 19 19 18 18 18 18 17 16 15 15 16 16 15 16 18 19 18 20 21 19 18 18 18 17 17 18 18 18 18 18 18 19 19 19 18 19 20 20 20 21 22 21 20 18 18 19 19 20 22 25 28 31 28 24 22 24 25 25 25 25 24 25 25 25 26 26 27 27 28 29 27 22 20 19 19 21
27 26 25 23 22 20 20 20 19 19 18 18 18 18 18 18 16 14 14 15 16 16 16 17 17 15 15 15 15 16 15 15 15 16 16 16 16 15 15 16 17 17 15 15 16 18 18 18 20 22 22 21 20 21 22 21 22 24 25 26 30 32 30 29 29 29 26 24 25 25 24 25 26 26 27 27 28 28 27 26 24 20 19 20 21
24 23 21 20 20 20 20 20 19 19 18 17 16 16 17 17 17 16 14 14 15 16 15 14 13 12 12 12 13 14 14 13 13 14 14 14 13 13 14 16 17 15 13 14 16 18 19 20 20 21 21 21 22 24 25 25 25 27 27 26 27 31 33 32 31 28 26 24 24 25 25 26 27 27 27 27 27 27 27 26 25 23 21 20 21
21 20 19 19 19 19 19 19 18 17 16 15 16 16 16 16 16 17 16 15 14 13 12 12 11 11 12 12 11 11 12 12 11 12 12 11 11 12 14 17 16 12 12 14 17 18 20 21 22 22 22 23 23 24 25 26 27 27 28 28 30 31 30 30 29 28 25 24 24 25 26 26 26 26 27 27 27 27 27 25 24 23 21 21 21
19 19 18 18 19 19 18 18 16 16 15 15 15 16 16 16 16 16 15 15 14 14 13 12 12 12 13 11 9 9 10 10 11 10 9 9 10 12 15 17 15 14 15 16 16 17 19 20 22 23 23 24 24 24 25 26 28 28 28 29 30 30 29 29 28 26 24 24 25 25 25 26 26 26 26 27 27 27 26 25 25 24 23 22 22
18 19 19 20 20 19 18 16 15 14 14 14 15 15 16 16 16 16 15 15 15 17 17 15 14 14 13 10 7 7 7 9 9 8 7 8 10 12 13 14 15 16 18 18 18 18 19 19 21 22 23 23 24 25 25 26 27 27 28 28 28 29 29 28 26 24 24 26 26 26 25 26 26 26 26 27 27 26 25 25 26 25 25 24 23
19 19 19 19 19 18 16 15 14 14 14 14 15 15 16 16 16 16 16 16 17 18 19 19 17 16 13 9 6 6 6 6 7 7 8 9 10 10 10 12 13 16 18 19 19 20 21 20 21 21 22 23 24 24 25 26 26 26 27 27 26 27 27 26 24 25 27 26 25 24 25 25 25 26 26 26 26 26 25 25 25 25 27 27 24
18 18 18 18 17 16 16 15 15 14 14 14 15 15 16 16 16 16 17 18 19 19 20 20 19 18 16 11 7 6 6 7 7 8 9 9 8 8 9 10 12 14 16 17 18 20 21 22 22 21 22 23 24 25 25 26 26 26 26 27 27 26 25 25 27 28 27 25 23 23 24 25 25 25 25 25 25 25 25 25 25 25 26 26 24
17 17 17 17 16 16 16 16 16 15 15 15 15 15 16 16 16 17 18 19 19 20 20 20 20 19 16 12 8 6 8 10 11 13 12 10 8 8 9 10 11 13 15 16 17 19 21 22 22 22 22 22 23 24 25 25 26 27 27 27 28 27 26 27 29 29 27 27 26 25 24 25 26 26 25 24 24 25 25 25 26 25 24 24 24
17 17 17 16 16 16 16 15 16 16 15 15 14 15 15 16 17 18 19 19 19 20 21 21 21 19 15 11 9 8 10 12 14 15 14 11 8 7 8 9 11 13 14 16 17 18 19 21 21 22 22 22 22 23 24 25 26 27 27 27 26 26 26 27 27 28 28 30 31 29 27 27 27 26 25 24 24 24 25 25 25 25 24 24 24
16 17 16 16 16 16 16 16 16 16 15 15 15 15 16 17 18 18 18 19 20 21 21 22 22 18 14 11 10 10 12 15 16 15 13 11 10 9 8 9 11 12 14 15 16 17 18 20 20 21 22 23 23 24 24 25 26 27 27 26 25 26 27 26 26 28 29 31 33 33 31 29 27 25 25 25 25 25 25 24 24 24 24 23 23
17 17 17 16 16 16 17 17 17 16 16 16 16 17 17 18 18 18 18 19 20 20 21 22 21 17 14 11 10 11 13 15 15 14 12 11 11 10 10 10 11 12 13 14 16 17 18 19 20 20 21 22 23 24 25 25 25 26 26 25 24 25 26 26 27 29 30 31 34 35 33 30 28 26 25 25 25 24 24 24 23 23 22 22 22
17 17 17 16 16 16 16 17 16 16 17 17 17 17 17 17 17 18 18 19 19 20 21 22 21 18 15 12 11 11 13 13 13 12 12 11 11 12 11 11 11 12 13 14 15 16 18 19 20 21 21 21 22 23 24 24 24 24 24 24 23 23 25 26 28 31 32 33 36 36 34 32 30 27 25 25 24 24 24 23 23 22 21 21 20
16 16 16 15 15 15 16 16 16 17 17 16 16 17 17 17 18 18 18 19 20 20 21 21 20 18 16 14 13 13 13 12 12 12 12 12 12 13 13 13 13 14 14 14 15 16 17 19 20 21 21 21 21 21 22 23 22 22 22 22 22 23 24 25 29 33 35 35 36 36 35 34 33 29 26 24 23 23 23 23 22 21 21 20 19
13 13 14 14 14 15 16 16 16 16 16 16 17 17 17 17 18 18 18 19 20 20 20 20 19 18 17 16 14 14 13 13 13 13 13 13 13 14 14 15 16 16 17 17 16 17 17 19 20 22 23 23 22 22 22 22 22 22 21 20 20 21 23 25 30 35 36 34 34 35 35 35 34 30 26 24 23 22 22 22 22 21 20 20 20
11 12 13 14 14 15 16 16 16 16 16 16 17 18 18 18 18 18 19 19 19 19 20 20 18 18 17 16 15 15 14 14 14 14 14 14 14 15 16 16 17 18 19 19 19 19 19 19 20 22 23 23 24 23 23 23 23 23 22 21 20 20 21 24 29 33 33 32 33 35 35 33 32 30 27 24 23 23 23 22 22 21 20 19 18
12 13 14 15 16 16 16 16 16 16 16 17 17 18 18 18 18 18 18 18 18 19 19 19 18 18 17 16 16 15 15 15 16 16 15 16 16 16 17 18 19 20 21 21 21 21 21 21 21 21 22 23 24 24 24 23 23 23 23 22 21 21 21 23 28 31 31 31 33 34 32 30 29 29 27 24 24 24 24 22 21 20 19 18 16
13 14 14 15 16 16 17 17 17 17 17 17 17 18 18 18 18 17 17 17 17 17 18 18 17 17 17 16 16 16 16 16 17 17 17 17 18 18 18 19 20 21 22 22 22 22 22 22 22 22 22 23 23 23 24 24 23 23 23 23 22 21 21 22 26 29 30 30 32 32 30 28 27 27 25 24 24 24 23 22 21 20 19 17 16
11 13 14 15 15 16 17 17 17 17 18 17 17 17 17 17 17 17 17 17 17 16 17 17 17 16 16 16 16 16 17 18 18 19 19 19 19 19 20 20 21 22 23 23 23 23 22 22 22 22 22 22 23 23 23 23 23 24 23 23 22 22 21 21 23 26 28 29 30 31 29 27 26 25 24 23 23 22 21 20 20 19 18 17 16
11 12 13 14 15 15 16 16 17 18 18 17 17 17 17 17 17 17 16 16 16 16 16 16 16 15 16 16 17 17 18 19 19 20 20 20 21 21 21 22 22 22 23 23 23 23 23 22 22 23 22 22 22 22 22 22 23 23 23 23 22 21 20 20 21 24 26 27 28 29 27 26 25 24 23 22 21 21 20 19 18 17 17 16 15
10 11 12 13 14 15 15 16 17 18 17 17 17 17 17 17 17 16 16 16 16 16 15 15 15 16 16 17 17 18 19 19 20 20 21 21 21 21 22 22 22 23 23 23 24 23 23 23 23 23 22 23 22 22 22 22 22 22 22 22 21 20 18 17 19 22 24 25 26 26 25 24 24 23 22 21 20 19 19 18 17 16 16 15 14
Wind_Direction
151 148 142 137 132 125 121 116 110 105 103 100 94 88 81 69 56 37 20 6 357 351 347 346 345 345 344 344 343 343 341 341 340 340 340 340 340 340 339 338 338 337 336 336 337 337 335 333 332 332 332 329 327 326 324 324 324 320 315 307 297 292 285 277 275 283 285 279 281 287 293 298 299 299 301 302 303 303 302 298 297 296 295 295 294
159 155 148 143 139 134 131 127 123 120 117 112 103 95 85 71 56 32 12 360 351 346 344 344 344 343 344 344 343 343 342 342 341 340 340 339 338 338 338 338 337 336 335 335 335 335 333 331 330 329 328 325 323 322 320 319 320 317 314 310 300 295 288 281 280 284 288 287 284 285 287 289 292 295 298 298 299 301 300 298 296 294 292 293 294
166 162 156 152 150 147 146 143 138 134 129 125 117 106 92 75 56 28 12 1 352 348 346 345 345 344 343 343 342 342 341 341 340 340 338 337 336 336 337 335 335 334 333 333 333 333 330 328 326 325 324 321 319 318 317 315 315 312 309 307 302 298 293 285 281 283 288 291 288 286 287 283 282 288 293 294 295 297 297 297 297 295 292 291 292
172 170 166 163 163 163 162 160 158 157 153 145 132 113 85 57 37 14 4 355 348 346 345 344 344 344 343 342 342 342 341 341 341 340 339 338 336 335 335 334 333 332 330 330 329 328 326 323 321 321 319 317 315 315 314 312 310 306 304 302 299 296 295 288 282 281 285 289 289 286 287 284 279 282 287 290 291 293 294 294 295 296 295 294 292
179 178 177 176 176 178 180 182 181 180 176 167 154 124 60 24 10 359 351 346 345 346 346 345 345 344 343 342 341 341 341 340 341 340 339 338 336 334 334 332 331 329 327 326 324 322 320 317 317 318 316 314 312 312 311 309 307 302 298 297 295 293 292 288 283 281 280 283 287 288 287 285 284 281 282 286 290 292 292 291 292 294 296 296 294
185 185 187 188 188 192 196 197 196 197 199 202 210 233 304 333 341 342 340 340 342 344 344 343 342 341 340 339 338 338 337 337 338 338 337 336 334 333 332 330 328 326 325 323 322 319 318 316 315 316 314 310 308 309 308 306 304 299 295 294 293 291 289 287 284 282 279 279 284 288 288 287 287 285 283 284 287 289 291 292 294 293 291 293 294
190 192 194 197 201 206 207 207 209 212 218 225 236 251 271 295 314 325 329 333 336 339 340 339 337 336 335 335 334 334 334 335 337 337 335 334 334 332 330 328 325 323 323 323 322 320 317 317 316 315 314 309 306 306 305 304 301 297 296 295 294 292 290 288 287 284 282 282 283 285 287 288 287 286 288 288 284 282 287 292 296 295 291 289 291
195 197 201 205 210 214 215 216 218 223 229 234 243 251 262 278 296 308 317 324 329 334 336 335 334 333 333 332 332 331 332 335 337 336 336 335 334 330 327 325 324 322 322 321 321 320 318 318 317 315 313 308 303 300 300 301 301 299 297 296 294 293 291 291 290 288 287 286 285 285 288 289 289 290 292 292 286 283 285 289 291 293 293 292 290
201 203 207 212 216 219 219 221 223 228 233 237 243 251 257 270 286 299 309 318 326 330 331 331 331 331 330 330 330 330 331 335 337 337 337 335 332 328 325 324 323 321 320 319 319 319 319 318 316 314 309 300 295 295 295 296 296 294 295 296 295 294 293 292 292 291 290 288 287 288 290 290 292 297 299 296 294 292 292 289 286 286 289 292 290
209 210 214 218 221 222 222 224 226 230 234 238 244 250 256 267 282 294 305 315 323 326 327 328 328 327 328 327 327 327 329 334 337 337 337 334 328 325 323 322 321 319 317 317 317 317 318 316 313 311 306 300 300 301 298 294 291 289 290 293 293 293 293 292 291 290 290 288 288 290 291 291 293 298 299 299 301 304 302 297 292 291 291 291 289
215 216 219 222 223 225 225 225 228 231 234 238 243 248 256 268 279 292 305 313 318 321 323 324 324 324 324 324 324 325 327 333 336 335 334 332 327 323 318 316 315 313 312 313 313 312 312 311 310 310 307 306 308 306 299 294 292 290 290 289 288 288 289 290 291 291 290 287 287 288 288 290 294 296 296 297 300 302 302 302 305 305 303 299 295
219 220 223 224 226 227 227 226 228 231 234 238 242 248 257 267 280 293 304 310 313 318 320 320 321 321 321 322 322 322 326 331 333 332 331 330 327 320 311 308 308 306 304 304 305 307 308 308 308 309 308 308 307 303 298 296 296 293 291 290 287 284 283 285 288 290 290 289 288 288 288 291 294 294 295 296 298 298 296 297 302 303 299 297 295
221 223 225 227 228 228 228 227 228 230 233 236 241 248 258 269 282 293 300 306 310 315 317 317 318 318 318 319 319 319 324 329 331 331 330 327 325 318 307 300 298 297 297 298 300 303 305 305 304 304 305 306 305 302 299 298 296 294 291 290 287 284 283 284 285 286 286 287 286 285 287 289 291 292 294 295 295 295 291 289 290 290 287 287 286
223 226 227 229 229 229 229 228 228 230 232 235 241 249 259 270 282 291 299 305 308 311 314 314 314 315 315 316 316 317 322 328 331 331 328 325 324 316 301 294 293 294 296 299 301 300 298 296 296 296 299 302 301 299 297 296 295 292 290 287 286 284 282 281 281 279 279 280 280 279 280 280 281 283 286 285 283 282 280 279 281 282 280 281 281
226 228 228 230 230 230 230 228 227 229 230 234 241 250 261 272 282 291 298 303 307 310 312 312 312 313 314 315 315 316 322 329 331 329 327 326 323 309 296 294 295 297 298 297 297 293 287 286 288 290 292 294 294 294 293 293 291 289 287 286 285 283 279 278 279 277 274 273 272 272 274 274 273 275 278 278 277 277 279 284 289 292 289 285 282
228 229 230 232 232 232 231 228 226 227 229 234 242 251 262 273 283 292 298 302 305 308 309 309 311 312 313 315 316 317 322 330 332 328 327 326 318 306 300 299 297 295 295 292 291 288 284 284 286 286 287 289 290 291 291 290 288 287 285 284 284 282 281 283 283 277 273 273 273 273 276 275 274 276 280 284 284 285 288 290 293 297 295 289 287
231 232 233 235 235 233 231 227 225 226 229 235 244 253 264 275 285 293 297 301 303 305 307 308 310 312 314 317 317 318 322 330 333 329 327 325 318 308 302 299 293 290 292 291 290 288 283 281 284 286 287 287 288 291 293 292 289 287 285 285 285 283 282 285 285 279 274 274 275 276 278 279 280 282 284 287 288 288 290 289 289 291 289 286 288
234 235 237 237 235 232 228 225 224 226 230 238 247 258 269 279 288 292 296 300 302 304 306 308 309 311 313 316 317 318 322 329 332 328 325 325 319 309 302 298 293 293 295 292 288 287 285 287 290 289 287 288 290 292 294 294 292 290 288 287 284 281 281 284 285 283 279 276 276 277 278 280 282 283 282 283 284 284 283 281 281 282 279 277 282
240 239 240 238 233 229 225 223 224 228 234 243 252 263 274 281 287 292 295 298 301 304 306 306 307 311 314 315 316 318 321 326 329 327 325 326 321 308 301 298 296 296 296 293 293 295 296 298 300 295 289 289 292 293 295 295 294 290 288 285 281 280 283 285 285 284 281 279 279 278 277 279 280 279 279 278 277 275 273 272 272 272 271 272 276
243 240 239 234 228 225 222 222 225 231 238 248 258 268 276 282 286 290 293 297 300 302 304 305 307 311 313 314 315 320 323 325 327 327 326 327 321 307 299 296 296 296 297 298 301 303 303 303 303 298 293 293 294 294 294 293 290 287 286 282 280 283 287 287 285 284 282 280 280 279 278 279 279 277 275 272 266 263 263 264 264 264 265 268 270
240 235 232 227 222 221 220 222 228 235 243 253 263 269 276 281 285 289 293 297 299 301 303 306 308 310 312 313 316 322 325 325 326 328 329 328 318 304 297 295 295 297 299 300 302 303 302 300 299 298 297 296 295 293 292 291 291 290 288 285 285 290 293 292 290 290 288 286 286 286 286 285 283 280 276 271 266 262 263 263 263 263 264 266 268
234 229 224 220 218 218 220 224 230 239 248 256 263 269 275 279 284 289 293 296 299 300 304 308 308 308 311 313 317 323 327 327 326 326 331 329 315 301 297 295 295 298 299 299 299 299 298 297 298 298 297 295 294 293 293 294 297 296 294 294 296 298 299 299 300 300 297 295 295 293 291 289 286 282 279 277 275 272 270 270 268 267 265 265 267
227 222 219 218 218 219 222 227 234 242 251 259 263 269 274 278 283 288 291 294 298 301 305 308 308 309 311 313 318 323 325 326 326 330 336 330 312 302 300 297 297 298 297 296 297 299 298 298 298 297 296 296 297 298 299 302 303 302 300 300 301 301 302 303 305 305 302 300 297 293 290 289 287 285 284 282 280 279 277 275 272 270 268 266 265
220 219 218 217 218 221 224 231 239 246 253 259 263 267 272 276 281 285 289 294 298 301 304 307 308 309 310 313 317 322 325 328 332 336 337 324 309 306 304 301 301 300 297 296 297 298 298 298 299 299 300 300 302 303 304 305 303 302 301 301 301 302 305 307 307 306 302 299 295 291 290 288 287 286 286 286 285 284 281 278 274 272 270 269 268
218 218 218 218 219 224 228 234 242 248 252 257 261 265 270 274 279 283 288 293 297 300 303 305 306 307 309 312 316 321 326 331 334 333 327 315 309 309 306 304 305 304 301 300 300 299 299 299 301 302 304 307 311 311 309 306 303 302 302 302 303 306 307 306 305 303 298 294 291 290 289 287 287 287 288 288 288 285 280 277 275 273 271 270 269
218 217 218 219 222 226 232 237 242 247 251 256 260 264 268 272 277 282 287 291 294 296 298 301 303 304 307 311 316 320 325 330 331 330 326 321 317 315 312 311 310 307 305 304 303 302 302 303 307 310 313 316 317 314 310 307 306 305 304 304 306 306 305 303 301 298 295 293 291 290 289 289 289 290 291 290 287 285 283 280 277 273 271 269 268
218 217 218 220 224 228 233 237 241 245 250 254 258 262 266 270 275 279 284 288 291 293 295 297 299 302 306 311 314 316 319 323 324 326 327 324 320 319 317 315 313 311 310 309 309 310 309 309 311 312 313 314 313 311 310 310 310 309 307 307 307 306 305 304 300 297 294 293 292 291 291 292 293 293 293 291 285 284 285 283 277 272 269 268 268
218 219 220 222 226 230 234 237 241 245 248 253 256 259 263 268 272 276 281 285 287 289 292 294 296 300 304 308 310 310 312 315 317 318 320 319 318 318 316 315 316 316 316 316 316 315 313 312 312 313 314 316 317 317 317 317 315 313 311 311 311 309 308 307 304 300 297 294 294 294 294 295 295 294 294 292 288 287 287 282 277 275 272 270 267
217 218 220 222 226 230 234 238 242 244 247 251 255 258 262 266 270 274 278 280 284 289 292 294 298 303 303 303 304 303 303 306 311 312 312 313 314 314 313 315 318 319 319 320 319 316 315 316 318 320 322 323 323 321 320 319 318 316 315 315 314 312 312 311 308 306 305 302 300 298 298 297 296 295 294 289 287 292 292 285 277 275 272 265 258
214 217 220 223 226 230 234 239 243 245 248 252 255 259 262 265 269 276 281 283 286 288 288 287 291 296 296 296 297 295 293 299 306 309 310 312 313 312 313 316 319 320 323 324 320 317 321 324 325 326 326 323 320 319 318 319 318 317 317 319 319 317 314 312 310 309 308 306 302 299 299 298 296 296 295 288 286 292 294 288 276 270 266 258 255
213 217 221 224 227 231 236 240 244 247 250 254 259 263 264 264 265 272 278 282 281 277 272 273 276 279 281 285 288 287 288 295 304 308 310 312 312 314 317 320 324 328 330 326 321 323 331 332 329 328 327 322 317 314 314 314 314 314 316 320 322 323 319 315 315 314 310 307 304 301 300 299 297 297 298 296 294 295 294 290 279 267 259 256 259
217 220 223 227 231 234 238 241 244 247 251 256 261 267 271 273 272 269 269 273 276 276 274 274 275 275 277 281 284 286 290 297 302 307 310 311 313 318 320 321 326 332 332 327 328 335 339 333 326 325 324 319 316 316 316 315 314 315 315 316 318 322 321 320 320 318 313 309 307 305 303 302 301 300 300 301 301 299 296 292 286 276 267 261 260
222 225 229 232 235 236 239 242 245 249 253 259 263 268 274 280 284 285 281 278 280 283 284 280 274 271 272 273 277 286 295 300 303 307 310 311 317 323 319 314 318 327 334 336 340 342 339 332 326 323 320 317 317 318 318 318 317 318 318 314 314 317 319 321 322 319 315 312 310 307 306 305 304 303 303 303 303 301 297 292 286 281 274 267 262
227 232 235 238 239 240 241 244 247 252 257 262 267 270 274 279 286 292 294 294 292 288 284 279 275 275 278 278 278 286 298 303 306 308 310 315 324 324 311 305 310 324 342 348 347 342 337 332 326 321 318 318 318 318 318 319 319 319 318 317 316 317 318 319 319 316 314 315 314 311 310 309 307 306 307 307 306 303 299 295 290 283 276 270 266
230 235 238 240 241 242 242 245 249 255 261 265 269 273 275 277 280 285 290 294 294 290 285 280 280 286 294 295 289 288 297 305 307 307 314 328 330 315 305 308 320 335 345 349 346 340 335 328 321 319 319 320 321 321 320 320 321 320 318 318 318 319 318 318 316 315 316 318 316 313 312 311 309 309 310 308 305 302 300 299 297 291 283 274 269
234 237 239 240 241 242 243 245 250 255 262 267 270 272 274 277 279 281 283 284 285 288 289 288 285 287 292 292 284 276 289 306 310 309 318 330 324 312 313 326 337 340 341 343 342 339 333 325 319 318 319 320 322 324 323 322 322 321 320 319 318 318 317 316 316 318 321 320 317 315 314 312 311 310 310 307 303 301 300 300 301 298 292 283 272
238 240 240 242 243 244 246 248 250 254 259 264 268 270 273 275 277 279 280 281 283 286 289 292 293 290 286 287 287 278 280 300 308 300 302 312 315 318 330 342 342 338 337 341 341 336 330 324 321 321 321 323 325 325 324 324 323 321 322 322 322 321 320 319 320 321 319 318 317 316 314 313 311 310 309 306 303 301 301 302 303 302 300 296 288
241 243 244 245 246 248 249 249 249 251 254 257 261 265 268 271 273 275 276 279 283 285 286 289 291 289 286 292 301 295 293 306 309 300 303 314 321 328 338 343 341 337 336 339 339 333 327 325 326 326 326 327 328 328 326 326 325 324 324 325 325 326 326 325 324 323 320 318 320 320 317 314 313 311 309 305 303 302 303 303 304 304 303 302 299
243 244 246 247 249 250 251 250 250 250 251 254 257 260 262 264 267 270 273 277 280 281 282 284 284 284 287 294 300 303 314 319 313 307 311 319 324 327 332 337 337 335 335 337 336 332 328 328 330 331 331 331 332 331 329 328 328 327 327 326 326 327 328 327 326 326 324 323 323 324 322 318 315 314 311 307 304 304 304 305 305 304 302 302 302
248 249 248 249 249 249 250 251 252 252 253 253 255 257 258 261 264 268 271 275 276 277 280 281 280 282 288 292 292 301 312 308 299 297 302 309 315 323 328 330 331 332 333 335 335 332 329 329 331 333 334 334 334 333 332 331 331 331 329 326 324 325 327 327 327 327 327 327 327 327 325 322 318 315 312 308 307 306 306 306 305 304 302 302 302
253 253 251 249 248 246 247 249 251 254 257 258 258 259 259 262 265 267 269 272 273 276 278 279 279 282 286 286 285 291 293 288 284 287 294 302 311 320 325 326 328 331 333 334 334 331 329 329 331 334 336 338 338 337 337 337 336 335 331 325 322 324 326 327 328 329 329 328 329 329 327 323 320 317 313 311 311 310 308 307 307 306 306 305 305
253 253 252 252 250 247 246 248 252 256 257 257 258 260 261 263 266 267 268 270 272 275 277 278 280 282 282 280 279 279 276 274 277 284 291 300 309 316 322 325 327 330 333 333 333 331 328 330 333 336 339 341 342 340 339 339 339 337 332 325 321 324 326 328 329 330 329 328 330 330 328 325 322 319 316 314 314 313 312 311 311 310 310 310 310
255 255 255 255 253 251 251 254 257 258 258 258 260 262 264 265 266 266 267 269 270 272 274 277 280 282 280 276 273 271 270 273 279 285 292 300 306 312 318 322 324 327 329 330 331 331 329 330 333 336 338 341 342 341 340 339 338 336 332 325 321 324 326 327 329 330 329 329 330 331 329 327 325 321 317 316 316 315 314 314 314 315 315 315 315
256 256 255 254 253 254 256 259 261 261 262 264 265 265 265 265 265 265 266 267 269 271 272 275 278 280 279 277 275 273 274 278 282 287 292 299 303 307 313 318 320 321 323 325 328 329 329 329 330 331 333 337 339 339 339 340 338 336 333 327 322 322 325 327 329 331 331 330 330 330 329 329 328 325 320 318 320 320 318 317 317 318 318 319 320
255 255 254 254 255 259 262 265 266 266 266 266 267 267 267 265 265 266 266 268 270 273 274 275 277 277 276 276 277 277 279 281 284 288 292 297 302 306 310 313 315 316 318 320 323 325 326 326 326 326 328 331 333 334 337 339 339 337 335 330 323 320 321 325 331 334 334 331 330 330 330 329 331 330 325 321 321 323 322 321 321 322 323 325 327
256 256 258 261 264 267 270 271 270 269 268 268 268 268 268 267 267 268 269 270 272 273 273 274 274 274 274 275 276 278 281 284 285 288 292 296 299 304 307 309 310 312 313 316 319 320 322 323 322 323 323 325 327 329 331 334 336 336 336 335 330 324 323 330 337 339 336 331 331 332 331 330 332 333 330 326 326 329 331 331 330 330 332 335 338
264 266 268 270 271 272 273 273 272 270 269 269 269 269 270 271 271 271 271 271 272 272 272 273 273 272 273 275 276 278 282 284 286 289 292 295 299 302 304 306 307 308 309 311 314 316 318 319 319 319 320 320 322 325 326 328 332 333 333 334 334 332 333 339 343 342 336 332 332 334 334 334 334 336 336 335 334 336 339 341 341 341 344 347 352
275 276 275 274 274 273 273 274 273 272 272 273 273 273 274 274 275 275 274 274 273 272 271 272 273 273 274 276 277 279 282 283 285 289 292 294 298 301 303 304 306 307 307 309 310 312 314 315 316 316 317 317 319 321 322 324 327 330 331 332 332 332 337 344 345 341 336 333 334 336 338 339 339 339 341 343 342 341 343 346 349 351 355 359 3
285 282 280 277 276 276 277 278 277 277 278 278 277 276 276 276 276 276 277 277 276 275 274 274 274 275 276 277 279 280 282 284 286 290 293 295 298 301 303 303 305 305 306 307 309 310 311 313 313 314 315 316 317 318 319 321 323 326 328 329 329 331 338 345 344 339 336 335 335 338 341 343 343 344 345 348 349 349 348 349 352 358 3 6 8
290 287 284 281 281 282 282 282 281 281 280 280 278 278 279 279 279 279 280 280 279 279 279 278 279 280 280 281 282 282 284 286 288 291 294 297 299 301 303 303 304 305 306 306 308 309 311 312 312 313 314 315 316 316 317 319 321 322 324 326 328 332 338 342 341 339 337 335 336 340 342 344 346 349 349 351 353 355 355 355 357 1 5 9 10
294 291 288 284 285 286 285 284 284 284 283 282 280 280 281 281 282 283 284 283 283 284 284 285 285 285 283 283 285 285 286 288 290 291 294 296 298 300 303 303 303 305 306 306 308 310 311 312 313 314 315 316 316 316 316 317 318 319 322 324 327 330 333 338 340 339 335 334 337 342 344 346 349 352 354 355 356 357 359 2 3 4 8 12 14